sat.trackr.live / text

‹ back to catalog

STARLINK-36582

NORAD 67599 · 2026-018L

PAYLOAD ACTIVE UNKNOWN

§ Identity

Operator
Country
US
Launch date
2026-01-29
Launch site
AFWTR
Launch vehicle
Mass (kg)
RCS (m²)

Purposes: comms

External: N2YO · Heavens-Above · Gunter

§ Orbital elements

Epoch: 2026-05-25T03:30:24.546816Z

Period
93.91 min
Inclination
97.2849°
Eccentricity
0.0000468
Mean motion
15.33462044 rev/d
Perigee alt
465.2 km
Apogee alt
465.8 km
Semi-major
6,843.6 km
B*
5.0746e-4
RAAN
210.3085°
Arg perigee
48.0394°
Mean anomaly
312.0889°
Rev number
1,910

§ Raw data

STARLINK-365821 67599U 26018L   26145.14611744  .00016352  00000+0  50746-3 0  99902 67599  97.2849 210.3085 0000468  48.0394 312.0889 15.33462044 19106

JSON: /api/v1/satellites/67599 · /tle

For live sub-satellite position, see the globe view (requires WebGL).

§ Visibility from observer

Set your observer location to see the next 7 days of passes ≥ 10°. The values pass through the URL so the page stays shareable.

No JS? Fill the form by hand. The geolocation button needs JavaScript.